Flag Weather past 2 weeks in Thusis, Graubünden, Switzerland

Now
58 °F

Refreshingly cool.


Feels Like: 56 °F
Forecast: 37 / 48 °F
Wind: 7 mph from South

Location: Chur-Ems

Current Time: Nov 27, 2014 at 3:21:13 PM

Latest Report: Nov 27, 2014 at 2:00 PM


Visibility: N/A

Pressure: 29.72 "Hg

Humidity: 51%

Dew point: 40 °F

Location of ThusisLocation

Historic Weather in Thusis — Graph

°F

Thusis temperature yesterday

Maximum temperature yesterday: 52 °F (at 2:00 PM)
Minimum temperature yesterday: 42 °F (at 10:00 PM)
Average temperature yesterday: 47 °F

Past Weeks' High & Low Weather Summary

 TemperatureHumidityPressure
High63 °F (Nov 14, 3:00 PM)97% (Nov 25, 5:00 AM)30.36 "Hg (Nov 25, 5:00 AM)
Low37 °F (Nov 20, 4:00 AM)40% (Nov 20, 2:00 PM)29.56 "Hg (Nov 15, 8:00 PM)
Average47 °F75%29.98 "Hg
* Reported Nov 12 2:00 PM — Nov 27 2:00 PM, Thusis, Weather by CustomWeather, © 2014

Note: Actual official high and low records may vary slightly from our data, if they occured in-between our weather recording intervals... More about our weather records

Advertising

Thusis weather history for previous 24 hours

 ConditionsComfort  
Time TempWeatherWind HumidityBarometerVisibility
2:00 PM
Nov 27
58 °FRefreshingly cool.7 mph51%29.72 "HgN/A
1:00 PM55 °FPartly sunny.6 mph57%29.74 "Hg19 mi
12:00 PM55 °FCool.7 mph58%29.76 "HgN/A
11:00 AM51 °FCool.2 mph60%29.80 "HgN/A
10:00 AM51 °FPartly sunny.9 mph63%29.80 "Hg19 mi
9:00 AM48 °FCool.7 mph68%29.83 "HgN/A
8:00 AM46 °FCool.8 mph72%29.83 "HgN/A
7:00 AM47 °FCool.12 mph71%29.83 "HgN/A
6:00 AM46 °FCool.3 mph75%29.85 "HgN/A
5:00 AM44 °FQuite cool.8 mph79%29.86 "HgN/A
4:00 AM45 °FFog.6 mph78%29.88 "Hg7 mi
3:00 AM45 °FCool.3 mph79%29.89 "HgN/A
2:00 AM46 °FCool.6 mph80%29.89 "HgN/A
1:00 AM45 °FFog.3 mph84%29.90 "Hg7 mi
12:00 AM43 °FQuite cool.2 mph93%29.93 "HgN/A
11:00 PM
Nov 26
44 °FQuite cool.1 mph92%29.93 "HgN/A
10:00 PM42 °FFog.1 mph94%29.94 "Hg5 mi
9:00 PM44 °FQuite cool.1 mph94%29.94 "HgN/A
8:00 PM46 °FCool.1 mph93%29.95 "HgN/A
7:00 PM47 °FFog.1 mph91%29.95 "Hg4 mi
6:00 PM48 °FCool.2 mph87%29.94 "HgN/A
5:00 PM49 °FCool.3 mph86%29.93 "HgN/A
4:00 PM51 °FFog.6 mph82%29.92 "Hg4 mi
3:00 PM51 °FCool.7 mph79%29.93 "HgN/A
Weather by CustomWeather, © 2014

See weather overviewHow to use our weather pages